Location: Strada George Coșbuc
(47.6577°N, 23.5639°E)
Time: 00:33:14
(UTC+03:00)

ISS - Pass Details

Date: 29 October 2017
Orbit: 401 x 408 km, 51.6° (Epoch: 22 October)

Event Time Altitude Azimuth Distance (km) Brightness Sun altitude
Rises 06:10:50 0° 201° (SSW) 2,299 -0.1 -9.7°
Reaches altitude 10° 06:13:22 10° 180° (S) 1,445 -0.9 -9.3°
Maximum altitude 06:15:34 17° 137° (SE) 1,100 -0.8 -8.9°
Drops below altitude 10° 06:17:46 10° 95° (E) 1,451 0.7 -8.6°
Sets 06:20:19 0° 74° (ENE) 2,314 1.3 -8.1°
